Regional Weather Roundup
Issued by NWS

Home | Current Version | Previous Version | Text Only | Print | Product List | Glossary On
Versions: 1 2 3 4 5 6 7 8 9 10 11 12 13 14 15 16 17 18 19 20 21 22 23 24 25 26 27 28 29 30 31 32 33 34 35 36 37 38 39 40 41 42 43 44 45 46 47 48 49 50
000
ASUS46 KLOX 310712
RWRCA

SOUTHERN CALIFORNIA WEATHER ROUNDUP
NATIONAL WEATHER SERVICE OXNARD CALIFORNIA
1100 PM PST FRI JAN 30 2015

NOTE: "FAIR" INDICATES FEW OR NO CLOUDS BELOW 12,000 FEET WITH NO
SIGNIFICANT WEATHER AND/OR OBSTRUCTIONS TO VISIBILITY.

  -  STATIONS PRECEEDED BY AN ASTERISK (*) ARE NOT NWS OR FAA
     STATIONS AND ARE NOT SUBJECT TO NWS AND FAA QUALITY CONTROL.

CAZ041-042-087-310800-
LA AND ORANGE COUNTY COASTAL AREAS


CITY           SKY/WX    TMP DP  RH WIND       PRES   REMARKS
L.A. DOWNTOWN  PTCLDY    59  55  87 E3        29.87R
L.A. AIRPORT   MOCLDY    59  57  93 CALM      29.86F
LONG BEACH     PTCLDY    59  56  89 CALM      29.87S

CITY           SKY/WX    TMP DP  RH WIND       PRES   REMARKS
AVALON           N/A     55 N/A N/A SE2         N/A
FULLERTON      PTCLDY    60  56  86 S5        29.87R
HAWTHORNE      PTCLDY    60  57  89 CALM      29.87S
*LOS ALAMITOS  MOCLDY    59  57  94 SE3       29.88R
*REDONDO BEACH   N/A     58  55  89 CALM      29.87S
SANTA ANA      CLOUDY    63  55  77 CALM      29.88S
STA MONICA APT PTCLDY    58  52  80 NE5       29.87S
*UCLA            N/A     55  50  82 N2        29.84S

$$

CAZ547-548-048-310800-
LA COUNTY VALLEYS AND INLAND EMPIRE


CITY           SKY/WX    TMP DP  RH WIND       PRES   REMARKS
BURBANK        MOCLDY    54  52  93 CALM      29.87R
VAN NUYS       PTCLDY    55  50  83 CALM      29.87R

CITY           SKY/WX    TMP DP  RH WIND       PRES   REMARKS
CORONA AIRPORT PTSUNNY   55  53  93 CALM      29.88F
CHINO          CLOUDY    56  52  86 CALM      29.89S
MARCH AFB      CLOUDY    51  51 100 E5        29.88F
*NORTHRIDGE      N/A     54  48  82 CALM        N/A
ONTARIO        MOCLDY    56  51  84 CALM      29.88S
*PASADENA        N/A     59  54  82 E1          N/A
RIVERSIDE      MOCLDY    55  51  86 NE3       29.88F
SAN BERNARDINO NOT AVBL
*WHITEMAN AP   NOT AVBL
*WOODLAND HILL   N/A     52  46  82 NE1         N/A

$$

CAZ054-055-310800-
LA AND SAN BERNARDINO COUNTY MOUNTAINS


CITY           SKY/WX    TMP DP  RH WIND       PRES   REMARKS
*ACTON           N/A     48  46  93 N6          N/A
*BIG BEAR AIRP RAIN      34  32  93 E3        29.94S
*BIG PINES       N/A     33  33  98 CALM        N/A
MT WILSON NWS    N/A     41  27  56 MISG        N/A
SANDBERG       MOCLDY    47  34  60 NW16      29.94S
*WARM SPRINGS    N/A     49  35  57 W12G23      N/A

$$

CAZ028-029-059-060-099-310800-
ANTELOPE VALLEY AND SURROUNDING AREAS


CITY           SKY/WX    TMP DP  RH WIND       PRES   REMARKS
LANCASTER      CLOUDY    53  39  59 W14       29.89S
PALMDALE       CLOUDY    52  40  63 W8        29.89S

CITY           SKY/WX    TMP DP  RH WIND       PRES   REMARKS
29 PALMS       MOCLDY    50  49  96 W5        29.94F
BARSTOW/DAGGET CLOUDY    53  49  86 CALM      29.89S
BISHOP         CLOUDY    48  29  47 N15G25    29.98R
CHINA LAKE     MOCLDY    49  45  86 CALM      29.89R
EDWARDS AFB    CLOUDY    51  47  87 NW3       29.86S
MOJAVE         CLOUDY    54  39  58 NW7       29.89R
NEEDLES        CLOUDY    56  48  74 NW5       29.86S
VICTORVILLE    CLOUDY    50  45  81 SE6       29.89S

$$

CAZ039-040-310800-
VENTURA AND SANTA BARBARA COUNTY COAST


CITY           SKY/WX    TMP DP  RH WIND       PRES   REMARKS
CAMARILLO      PTCLDY    57  52  83 CALM      29.86F
NWS OXNARD       N/A     55  51  87 CALM      29.85F
OXNARD AIRPORT PTCLDY    57  53  86 NE5       29.86F
*POINT MUGU    PTCLDY    59  54  83 NE3       29.86F
SBA APT/GOLETA CLEAR     51  48  89 W3        29.85F
*SANTA BARBARA   N/A     55  49  81 CALM      29.93S
*VENTURA         N/A     56  52  86 CALM      29.90S

$$

CAZ044-045-310800-
VENTURA COUNTY VALLEYS


CITY           SKY/WX    TMP DP  RH WIND       PRES   REMARKS
*SIMI VALLEY     N/A     51  48  87 CALM      29.84S
*OJAI            N/A     46  43  90 CALM      29.82F
*FILLMORE        N/A     53  48  83 CALM      29.77S

$$

CAZ053-310800-
VENTURA COUNTY MOUNTAINS


CITY           SKY/WX    TMP DP  RH WIND       PRES   REMARKS
*LOCKWOOD VLY    N/A    N/A N/A N/A MISG        N/A
*ROSE VALLEY     N/A     37  39 100 MISG        N/A

$$

CAZ034-035-036-310800-
CENTRAL COAST AND SANTA YNEZ VALLEY


CITY           SKY/WX    TMP DP  RH WIND       PRES   REMARKS
SAN LUIS OBISP CLEAR     49  47  93 E5        29.90F
SANTA MARIA    FOG       50  47  89 CALM      29.90F VSB 1/4

CITY           SKY/WX    TMP DP  RH WIND       PRES   REMARKS
*CAL POLY SLO    N/A     54  50  87 SE5G13      N/A
*LOMPOC        CLOUDY    52  45  76 CALM      29.91F
*PISMO BEACH     N/A     52  50  90 CALM      29.91S
*SANTA YNEZ    CLOUDY    54  50  87 CALM      29.90F

$$

CAZ037-038-051-310800-
SAN LUIS OBISPO COUNTY INTERIOR AND CUYAMA VALLEY


CITY           SKY/WX    TMP DP  RH WIND       PRES   REMARKS
*CUYAMA          N/A     44  39  81 CALM      29.90F
PASO ROBLES    CLEAR     49  45  86 CALM      29.91F

$$

CAZ032-033-061-310800-
SOUTHERN DESERTS


CITY           SKY/WX    TMP DP  RH WIND       PRES   REMARKS
BLYTHE         CLOUDY    59  54  83 CALM      29.85S
IMPERIAL       MOCLDY    55  48  77 SW5       29.83F
PALM SPRINGS   MOCLDY    59  52  77 NW3       29.87S
THERMAL        MOCLDY    55  49  80 W3        29.83F

$$

ELSEWHERE ACROSS THE WESTERN UNITED STATES AND MEXICO


CITY           SKY/WX    TMP DP  RH WIND       PRES   REMARKS
DENVER, CO     CLOUDY    35  25  66 N7        30.02F WCI  29
GRAND CANYON,  CLOUDY    38  37  97 VRB3      29.90F FOG
HONOLULU, HI   PTCLDY    70  64  83 N5        30.00R
KAHULUI, MAUI  MOCLDY    73  66  78 NE8       30.00R
LAKE TAHOE, CA CLEAR     31  25  78 CALM      30.06R
LAS VEGAS, NV  CLOUDY    50  44  80 NE5       29.84S
MAMMOTH LAKES, CLOUDY    34  27  75 W13       30.05S WCI  25
MEXICO CITY, M PTCLDY    50  37  62 W6        30.32F
PHOENIX, AZ    CLOUDY    56  53  90 SE6       29.84F
PORTLAND, OR   CLEAR     40  35  83 CALM      30.26R
RENO, NV       PTCLDY    40  29  64 N7        30.12R
SALT LAKE CITY CLOUDY    41  36  82 W8        29.97S
SAN DIEGO, CA  MOCLDY    61  55  82 CALM      29.90F
SAN FRANCISCO, CLEAR     54  52  93 CALM      29.93F
SAN JOSE, CA   CLEAR     51  49  92 SW5       29.93S
SEATTLE, WA    FOG       39  38  96 W3        30.25S VSB 1/8
TIJUANA, MEX   MOCLDY    55  48  76 NE3       29.92

$$

STATION/POSITION TIME  TEMP    WIND        PRES    VSBY  WAVE
                       AIR SEA DIR/SP/G                  HT/PER
                 (UTC) (F)     (DEG/KT/KT) (MB)    (MI)  (FT/S)
POINT ARGUELLO B NOT AVBL
WEST SANTA BARBA 0700   58 60  330/ 19/ 23 1011.5F         8/ 8
POINT CONCEPTION NOT AVBL
EAST SANTA BARBA NOT AVBL
SANTA MONICA BAY 0700   60 62  290/  4/  4 1011.6F         3/16



USA.gov is the U.S. government's official web portal to all federal, state and local government web resources and services.